Wind_Speed
12 11 10 9 8 7 7 6 5 5 5 4 4 4 4 3 3 2 2 2 3 3 2 2 1 1 2 3 4 5 7 8 9 9 11 12 13 13 13 14 15 16 16 17 17 17 17 17 18 18 18 19 20 22 24 25 26 27 28 28 28 28 27 26 25 24 24 25 26 28 30 30 31 31
9 8 7 7 5 5 4 4 3 3 2 1 1 0 1 1 0 1 2 2 2 2 2 3 3 4 5 5 5 6 8 9 11 11 12 14 15 15 16 16 17 18 18 19 19 19 20 20 21 21 22 23 24 25 26 27 28 29 29 30 30 30 30 29 28 28 28 29 31 32 33 34 35 35
8 7 6 5 5 4 4 4 3 3 3 3 3 4 4 4 3 3 3 3 4 4 5 5 6 6 7 7 7 8 9 10 11 12 13 14 16 17 17 18 18 19 20 21 22 23 23 24 25 25 26 27 28 29 29 30 30 31 32 33 34 33 33 32 32 31 32 33 34 36 37 38 38 38
9 8 7 6 5 6 6 6 6 6 6 6 6 7 7 7 6 6 6 6 6 7 7 8 8 9 9 9 9 10 11 11 12 12 14 16 17 18 19 19 21 22 22 23 24 25 26 27 28 29 30 31 31 32 32 33 34 35 36 37 37 37 36 36 35 35 36 37 38 39 40 41 42 42
12 11 10 9 8 8 8 8 9 9 10 10 10 10 10 10 9 9 9 9 9 10 10 11 11 12 12 12 12 13 14 14 14 14 15 17 18 18 19 20 21 22 23 24 25 26 27 28 30 31 33 34 34 35 36 37 38 39 40 40 40 40 40 39 39 39 40 40 41 41 42 43 43 42
14 14 13 12 11 10 10 10 11 12 13 13 13 13 13 13 13 13 12 12 12 13 14 13 13 14 14 15 15 16 17 17 17 17 18 19 20 21 23 25 26 27 28 29 29 30 31 32 34 35 35 36 37 38 39 40 41 42 42 41 41 41 42 42 42 42 42 43 42 42 42 43 43 41
17 17 15 14 13 13 12 13 14 15 16 16 16 16 16 17 17 17 16 16 16 17 17 16 16 16 16 17 18 19 20 20 21 21 21 22 23 24 26 29 32 34 36 37 36 36 36 37 37 37 38 39 40 41 42 43 43 44 44 43 42 43 43 43 43 43 43 43 42 42 43 43 41 41
20 19 18 16 15 15 15 16 16 16 17 18 19 19 18 19 19 19 19 19 19 19 19 19 19 18 19 20 21 22 22 23 24 25 24 24 24 26 28 31 34 36 37 38 38 39 39 39 39 40 41 43 43 45 46 46 46 47 47 46 47 48 47 46 46 45 45 45 44 44 45 44 44 45
21 20 19 18 18 18 18 18 18 18 19 20 20 20 20 20 20 20 20 21 21 21 21 21 21 21 22 22 23 24 25 25 26 27 27 27 29 32 33 34 35 36 37 38 39 40 41 42 43 43 44 45 45 45 46 47 48 48 48 48 49 50 50 49 49 49 49 49 49 49 50 49 50 52
18 18 18 18 18 18 18 19 19 20 21 21 21 20 20 20 20 21 21 22 22 22 22 22 22 23 24 25 26 28 29 29 29 29 29 29 32 33 34 35 36 37 38 40 42 44 44 45 45 46 47 48 48 48 49 50 51 49 47 47 49 49 49 49 49 49 48 49 50 52 52 53 54 54
17 17 17 17 18 18 18 19 20 21 21 22 22 21 20 21 21 21 21 21 22 23 24 24 24 24 25 26 29 31 32 32 31 30 29 30 31 32 34 36 37 38 40 42 44 45 45 45 46 46 48 49 49 50 51 52 52 51 50 50 51 51 51 51 50 50 50 51 53 55 55 55 55 55
17 17 17 17 18 18 19 19 19 20 21 22 23 23 23 23 22 22 23 24 25 26 27 27 26 25 24 25 30 35 35 34 32 30 30 30 31 32 33 35 38 40 42 43 45 46 47 48 48 47 48 48 48 50 52 53 53 52 53 53 54 54 54 54 54 54 56 57 59 58 57 57 57 57
17 17 17 17 16 16 18 20 20 21 22 23 24 25 25 24 24 24 24 26 28 29 30 30 29 28 26 27 32 37 37 35 34 34 34 35 36 38 38 39 42 44 46 47 48 50 52 54 55 54 53 52 53 54 56 58 57 55 55 56 57 57 57 57 57 58 60 60 60 59 58 58 58 58
18 18 19 19 17 16 18 20 22 23 24 25 26 25 24 23 24 24 25 26 28 29 31 31 32 31 30 31 35 37 37 38 39 40 42 43 44 45 45 46 47 48 50 51 52 54 55 57 59 59 59 59 59 61 62 63 61 59 58 59 61 61 62 62 62 62 62 62 61 60 60 60 59 59
22 23 23 22 20 20 20 20 22 25 26 26 26 26 26 25 26 26 27 27 28 30 31 32 32 33 35 37 38 38 39 42 44 46 47 47 48 48 48 50 50 50 52 54 56 58 60 61 62 63 63 62 62 64 65 66 65 64 65 66 68 69 68 67 67 67 66 67 66 64 63 63 62 61
28 28 27 26 25 25 24 24 25 26 26 26 26 26 28 29 29 27 27 28 30 31 32 33 35 37 40 41 41 42 44 46 47 48 49 49 50 51 53 55 56 56 58 60 60 61 62 63 63 62 63 63 63 64 65 67 67 68 69 71 72 72 71 70 71 72 72 72 72 70 68 66 65 64
32 32 31 31 31 30 30 29 29 29 28 27 27 28 30 32 33 31 30 31 32 32 34 36 38 41 43 44 44 45 47 47 48 49 51 52 53 55 57 59 60 61 62 61 60 61 61 62 63 63 63 63 62 63 64 66 67 69 70 71 72 71 71 72 73 74 75 74 73 71 69 68 66 66
35 35 35 36 36 36 35 34 33 32 31 29 28 29 31 32 33 34 34 36 37 38 39 41 43 45 46 46 46 45 45 47 50 52 53 54 56 58 59 61 61 60 59 59 59 61 62 63 64 64 65 65 64 64 65 66 67 68 69 70 72 73 74 74 74 73 71 69 68 67 66 66 66 66
37 36 37 38 39 39 38 37 36 35 34 33 33 33 34 34 35 37 38 40 42 44 46 46 47 48 48 48 48 48 48 51 54 55 56 57 58 58 59 59 58 57 57 58 59 61 62 62 63 64 66 66 67 68 68 69 69 69 70 70 70 70 72 72 69 66 62 59 58 58 57 59 61 62
38 37 38 39 40 40 41 40 39 38 38 38 39 39 39 40 42 43 45 46 47 48 49 49 50 50 50 49 50 50 52 54 55 56 56 56 56 55 55 55 55 55 55 56 57 59 61 62 62 64 65 66 67 68 68 67 67 68 69 69 66 65 68 69 66 62 57 55 53 51 50 51 51 52
38 38 39 40 41 42 43 43 42 42 43 43 43 44 44 45 46 48 49 50 50 50 50 50 51 51 51 51 51 52 54 55 55 55 53 52 52 52 53 53 53 54 55 55 56 58 59 60 60 61 63 64 63 62 62 62 62 62 64 64 61 60 62 64 62 59 58 58 57 54 53 52 51 51
40 40 40 41 42 43 44 44 44 45 46 47 47 48 49 49 50 51 51 52 52 52 51 51 51 52 52 52 52 53 54 54 53 51 50 49 50 51 52 53 55 56 55 55 55 56 57 56 56 56 57 57 55 55 56 56 57 58 60 60 56 53 54 55 55 56 59 61 62 62 61 61 61 61
43 44 44 44 44 45 45 46 47 47 48 49 50 51 51 52 52 52 53 53 52 52 51 51 51 52 52 51 51 51 51 51 49 47 47 47 49 51 53 54 55 55 54 54 54 55 55 53 52 51 49 48 49 52 53 53 53 52 51 52 50 50 55 59 59 60 64 64 65 65 63 62 65 67
52 52 52 52 52 52 53 52 52 53 53 53 52 51 51 50 50 50 51 51 51 50 50 50 50 50 50 49 49 48 48 47 45 44 45 47 49 51 52 52 52 51 51 52 53 54 54 53 51 50 46 45 48 49 47 47 46 42 42 46 46 46 53 58 59 61 63 64 66 67 66 66 69 71
61 60 60 60 59 59 59 58 57 57 55 53 52 50 49 48 47 48 48 48 48 48 48 48 47 47 47 47 47 46 44 43 42 43 45 47 48 49 49 49 49 49 49 50 52 52 53 52 52 50 48 48 50 48 44 43 42 38 40 45 46 47 52 58 61 63 65 66 68 70 71 71 73 74
61 61 61 61 60 60 59 58 57 55 53 51 49 48 47 46 46 46 46 47 46 46 46 45 45 45 46 46 45 43 42 41 42 43 45 46 47 47 47 47 47 47 48 49 50 51 51 52 52 51 50 49 50 50 48 46 44 42 43 45 45 46 50 55 59 62 64 66 68 70 72 73 75 77
58 58 57 57 57 56 55 54 52 51 49 47 46 46 45 45 45 45 45 45 44 44 44 45 45 45 44 43 42 41 41 41 42 43 43 44 45 45 46 45 46 46 47 48 48 49 49 50 51 51 51 51 51 51 50 49 47 46 45 44 44 44 45 47 50 53 56 58 61 64 67 70 74 78
54 54 53 53 52 51 51 50 49 48 46 45 45 44 44 44 44 44 43 43 43 44 45 45 45 44 42 41 41 41 41 41 42 42 42 43 44 45 45 45 45 46 47 47 48 48 48 49 50 51 51 51 51 51 51 50 49 48 46 45 44 43 43 43 44 45 47 49 50 53 55 59 63 68
51 50 49 48 48 48 47 47 46 46 45 44 43 43 43 43 42 43 43 44 45 45 45 45 44 42 40 40 40 41 41 42 43 42 42 42 44 45 45 45 45 46 47 47 48 48 49 50 50 51 51 51 51 51 51 51 50 50 48 47 45 43 42 41 41 42 43 43 44 45 46 48 51 54
47 47 46 45 45 44 44 44 44 43 43 43 42 42 42 42 43 45 46 47 47 46 45 44 42 41 40 40 40 41 42 43 43 42 42 42 43 44 45 46 47 47 47 47 48 48 49 50 51 52 52 52 52 52 52 51 51 50 49 47 46 44 43 41 40 40 40 40 40 40 41 42 44 45
47 46 45 44 43 43 42 42 41 41 41 42 43 43 44 45 46 48 48 48 47 45 44 43 41 41 41 41 42 43 44 44 44 42 42 42 43 44 45 46 47 48 48 48 48 48 49 50 51 52 52 52 52 52 52 52 51 50 49 47 46 45 44 42 41 40 39 39 38 38 39 40 41 39
48 47 46 45 43 42 41 41 41 42 43 44 46 47 47 48 48 49 48 47 46 44 43 43 43 42 43 43 43 44 46 45 43 42 41 42 43 44 45 46 48 49 49 49 49 49 49 50 51 52 52 51 52 52 51 51 50 49 48 46 45 44 43 42 42 40 39 38 38 37 37 37 37 37
47 46 45 44 43 42 42 43 44 45 46 46 46 46 47 47 47 47 46 45 44 43 43 44 44 44 44 44 45 46 47 45 42 41 42 43 44 45 46 47 48 49 50 50 50 50 50 51 52 52 52 52 51 51 50 50 49 49 48 46 44 43 42 41 41 40 39 38 37 37 36 36 35 35
43 42 42 42 42 43 44 44 45 44 43 43 42 42 43 43 44 44 43 43 43 43 44 44 45 45 44 45 46 48 46 44 42 42 43 44 45 47 48 48 49 50 51 51 51 51 51 51 52 52 53 52 51 51 50 49 48 48 47 46 45 43 42 40 40 39 38 37 37 36 36 35 35 35
39 40 40 41 41 42 42 42 40 39 38 38 38 39 39 40 41 41 42 42 42 43 44 44 45 45 45 47 48 48 45 43 42 43 44 45 46 48 50 50 50 51 52 52 52 52 52 52 52 52 53 52 51 51 50 49 47 47 47 46 45 43 41 40 39 38 38 37 36 36 35 35 35 34
38 39 39 39 39 40 39 38 37 36 36 36 37 37 37 37 38 39 40 41 42 43 44 45 46 47 48 48 48 46 44 43 43 44 45 47 48 50 52 52 52 53 53 54 54 54 54 53 52 52 53 52 52 51 51 49 47 46 46 46 45 44 42 40 39 38 37 37 36 35 35 34 34 34
36 37 37 37 37 36 36 36 35 34 34 34 35 35 35 36 37 38 39 40 42 43 45 46 47 47 47 46 45 45 44 44 44 45 47 48 50 51 53 54 54 54 55 55 55 55 55 55 54 53 53 53 52 52 51 50 48 46 45 45 45 44 43 41 39 38 37 37 36 35 35 34 34 34
34 34 35 34 34 34 35 35 35 35 34 34 34 35 36 37 38 39 40 41 43 44 45 45 46 46 45 44 44 44 45 45 46 47 49 50 51 53 55 54 54 55 56 56 56 56 56 56 55 54 54 53 53 52 51 50 48 46 45 44 44 44 43 42 40 39 37 37 36 36 36 35 35 35
33 34 34 34 34 34 35 36 37 37 37 37 37 38 39 40 41 41 42 43 44 44 44 44 44 44 44 44 44 44 45 45 47 49 50 51 53 55 56 55 54 56 56 57 57 57 56 56 56 55 54 54 53 52 51 50 48 47 45 44 44 43 44 43 41 40 38 38 37 37 37 36 36 36
34 34 35 35 35 36 36 37 39 40 41 41 42 42 42 42 43 43 44 44 44 44 43 43 43 43 43 44 44 45 45 47 48 50 52 53 55 57 57 55 55 56 57 57 57 57 57 57 57 56 55 54 53 53 52 50 49 47 46 45 44 43 44 43 42 40 39 38 38 38 38 38 38 38
35 35 36 37 38 39 40 40 41 41 42 43 44 44 43 43 43 43 43 43 43 43 42 42 43 43 44 45 46 46 47 48 50 52 54 55 58 59 58 56 56 57 57 57 57 57 57 58 58 57 56 54 53 53 51 50 49 48 47 46 45 44 44 43 42 40 38 37 37 37 37 37 37 38
38 39 40 41 42 43 42 42 41 40 41 41 42 43 42 41 41 41 41 41 42 42 43 43 44 44 45 46 47 47 48 50 52 54 56 59 60 60 58 57 58 58 57 57 58 57 57 58 58 58 57 55 53 52 51 49 48 48 47 47 46 45 45 44 42 39 37 35 34 34 34 34 35 36
42 43 43 43 43 42 41 40 39 38 38 38 39 40 40 40 40 41 41 42 43 43 44 45 46 47 48 49 50 51 53 54 56 57 59 60 60 59 58 57 58 57 57 58 58 57 58 59 59 58 57 54 52 52 51 49 48 47 47 46 46 46 46 45 43 40 37 35 34 35 35 36 38 40
44 44 44 43 43 41 40 39 38 37 37 36 37 38 39 40 41 42 43 44 45 46 47 48 50 51 53 54 55 56 57 57 58 58 58 58 58 57 56 56 56 57 57 57 57 58 59 59 59 59 57 54 52 51 50 48 47 46 45 45 46 46 47 47 46 44 41 39 38 39 39 40 43 45
42 42 43 43 42 41 41 40 39 39 39 39 40 41 42 43 44 45 46 48 49 50 52 53 55 56 57 57 58 58 58 58 58 57 57 56 55 55 55 56 56 57 57 57 58 59 60 60 60 59 57 53 51 50 48 47 46 45 45 45 46 47 48 49 50 49 47 44 43 42 43 44 46 48
Wind_Direction
131 127 124 122 118 115 115 113 111 111 110 105 100 98 103 99 85 70 53 55 68 73 72 78 133 215 243 254 254 255 256 260 264 268 274 279 281 283 284 284 285 287 290 291 292 293 294 294 294 294 295 296 298 300 301 303 305 308 310 312 313 313 312 311 309 307 307 308 310 311 313 313 313 313
146 144 142 145 149 152 156 155 155 157 156 149 147 196 215 197 212 294 305 321 338 346 337 322 306 298 296 295 284 272 267 267 269 271 273 276 279 281 283 284 286 287 287 287 287 287 288 289 290 290 291 292 295 298 300 301 303 305 307 308 309 309 309 308 306 304 303 304 305 307 309 310 310 310
172 172 173 179 191 208 222 228 226 223 229 240 250 262 269 268 269 270 275 289 304 308 308 309 311 309 307 305 299 290 285 283 282 282 282 282 281 281 282 283 285 285 284 284 285 285 286 287 288 288 289 291 294 297 300 301 302 304 305 306 306 306 306 305 304 303 302 302 303 304 306 306 307 307
205 206 209 215 227 239 247 251 252 252 252 255 262 269 273 275 278 283 289 297 302 304 307 308 311 311 310 308 304 299 297 297 297 295 293 292 293 294 293 289 286 285 285 285 286 286 287 288 289 290 291 292 294 296 299 301 301 302 303 304 304 304 303 303 302 301 301 301 301 303 304 305 305 304
225 227 232 241 251 255 255 253 255 259 262 267 274 278 279 278 281 288 295 301 304 305 306 308 310 310 310 309 306 303 302 303 303 298 293 291 292 295 296 296 296 296 294 293 292 291 291 292 293 293 294 294 293 294 296 298 299 299 300 301 302 302 301 300 300 299 300 300 300 301 304 306 306 304
232 237 244 250 254 255 256 259 263 267 270 274 278 281 282 282 284 287 291 295 299 302 302 304 305 306 307 306 303 302 301 300 299 296 292 289 287 288 290 293 296 296 295 295 294 293 293 295 296 296 296 296 294 292 293 296 297 297 297 298 299 300 299 298 298 297 299 300 299 299 302 305 306 306
239 244 248 250 251 252 256 264 272 275 275 277 279 281 283 285 288 289 290 292 294 296 298 298 298 299 301 301 300 298 296 294 292 290 289 289 289 291 294 295 294 293 292 292 291 291 291 292 293 293 296 297 295 292 291 294 295 295 295 294 295 298 298 296 296 296 297 299 298 298 299 300 302 303
243 247 249 249 250 254 259 266 270 273 275 276 277 279 281 284 286 287 288 288 289 291 294 295 295 294 294 294 294 293 291 289 287 285 284 285 289 294 296 295 293 292 291 291 290 289 289 290 290 291 295 299 297 294 292 292 293 294 293 291 292 295 295 293 293 293 295 296 296 296 296 295 296 297
243 245 247 249 252 256 260 264 267 270 273 274 275 278 280 282 283 283 283 283 284 287 290 291 291 291 292 292 290 289 290 289 286 285 285 288 294 299 299 296 294 293 292 291 290 289 288 288 289 290 294 297 298 296 295 293 294 294 293 291 292 293 293 292 291 291 292 294 294 295 294 293 292 293
237 241 245 250 255 259 261 263 266 269 272 274 276 279 281 282 283 284 285 284 284 287 290 292 292 290 291 291 291 292 291 290 288 289 290 293 297 299 300 299 297 296 292 290 290 289 287 288 288 288 290 293 293 294 294 293 293 293 292 292 292 292 293 292 291 290 291 294 296 297 296 294 293 293
237 242 248 254 258 260 262 264 266 269 272 274 276 278 280 282 282 284 287 286 287 289 292 294 294 291 291 293 295 294 290 289 291 294 296 295 296 297 298 298 297 297 295 293 293 292 290 291 291 290 291 292 290 290 291 292 292 290 289 290 291 291 291 291 291 291 291 293 296 297 296 294 293 293
246 249 255 262 265 266 265 266 268 269 271 272 273 276 278 278 278 281 284 286 287 288 288 291 292 291 291 293 290 287 286 289 295 299 298 295 293 294 295 294 294 294 293 293 293 293 293 293 294 293 294 293 290 289 289 291 292 290 287 288 289 289 290 290 290 289 289 290 293 295 295 293 291 290
257 261 265 270 273 274 271 268 268 268 269 272 275 278 278 278 279 280 281 284 285 285 284 284 285 285 285 284 282 282 286 291 295 298 297 293 292 292 291 292 292 290 289 288 288 289 290 291 291 292 292 291 290 288 288 290 291 291 290 290 290 288 288 288 288 288 288 290 292 294 294 292 290 288
256 262 266 267 269 273 274 274 273 272 273 277 278 278 280 281 281 280 280 281 283 284 283 280 279 280 282 282 283 285 287 288 290 293 292 291 291 291 291 293 293 291 290 290 289 289 289 289 289 289 288 288 287 287 288 288 289 289 290 291 289 288 287 288 288 288 289 290 291 292 293 292 289 287
248 252 254 257 262 267 272 276 276 275 279 283 282 279 279 278 276 277 279 281 282 282 282 279 278 280 284 287 287 287 286 287 290 292 293 294 294 294 295 297 297 296 295 293 292 291 290 290 289 288 287 286 286 286 286 286 286 286 287 288 288 287 288 288 288 288 289 289 290 290 290 289 287 285
255 253 252 255 262 266 269 271 272 274 279 283 281 279 277 274 272 274 278 279 278 276 276 277 279 281 286 290 290 290 291 291 293 294 296 298 299 298 299 300 300 299 298 297 295 293 292 293 293 291 290 289 288 287 285 285 285 284 284 285 285 285 285 286 287 287 287 287 288 288 287 287 285 282
262 260 257 258 263 267 270 270 271 273 275 277 276 275 274 271 269 269 272 275 275 274 275 279 280 282 286 289 290 292 294 293 294 297 299 299 299 299 300 300 300 300 300 299 297 296 296 297 296 294 294 293 291 288 287 286 285 284 284 284 283 282 282 282 284 284 285 286 287 287 286 285 283 281
264 261 260 262 265 269 271 272 273 273 274 276 277 276 275 273 270 268 270 273 276 277 280 282 282 284 286 288 289 291 291 292 295 298 300 300 300 300 300 300 301 301 300 299 298 298 298 297 297 296 294 292 290 289 288 287 286 285 284 283 282 281 281 282 283 284 285 286 286 285 285 284 282 281
267 264 263 265 267 269 271 272 274 274 276 280 281 279 277 276 274 273 274 276 278 280 282 283 284 285 287 288 290 290 290 293 297 299 300 301 301 300 300 301 301 301 300 300 300 299 298 298 297 295 293 291 289 288 287 285 284 283 282 281 280 280 280 281 282 283 284 285 284 283 284 284 284 282
270 269 268 268 268 269 270 272 273 275 278 281 282 282 281 279 279 279 280 280 281 282 283 284 284 286 287 289 290 291 293 296 299 300 300 300 299 299 299 300 301 300 300 301 301 300 300 299 298 296 294 293 291 290 289 287 286 284 283 281 280 279 278 277 278 279 280 280 279 279 279 280 280 279
264 265 266 267 267 268 270 271 273 276 279 281 282 283 283 282 282 282 282 282 282 283 283 284 285 286 288 289 291 292 294 296 298 299 299 298 298 298 299 299 299 299 299 300 302 303 303 302 301 299 297 295 294 294 294 292 291 289 287 285 283 280 277 274 273 274 273 272 273 273 272 271 270 270
264 264 264 265 266 268 270 271 273 276 279 281 282 283 283 283 282 282 281 282 282 282 283 283 284 286 287 289 291 293 295 296 297 297 296 296 297 298 299 299 298 299 298 298 302 305 306 305 304 302 301 300 298 296 295 295 295 294 292 289 285 281 276 272 269 268 267 267 269 269 268 268 266 265
272 270 269 268 269 272 274 275 276 278 280 282 282 282 281 281 280 280 280 280 280 281 281 282 284 286 287 289 291 293 295 295 295 295 295 296 297 298 300 300 301 301 300 298 302 306 308 308 308 308 308 304 297 294 293 293 294 294 290 285 282 279 276 272 268 265 264 265 265 265 265 265 264 263
280 279 279 277 277 278 280 280 281 282 284 284 283 282 281 280 279 278 278 279 280 280 281 283 285 287 289 291 293 294 294 293 293 294 295 297 298 300 302 303 304 304 303 302 305 308 310 310 311 312 312 306 301 300 299 295 292 289 283 281 281 279 277 275 272 268 266 265 264 263 263 263 264 264
280 282 282 282 282 282 282 282 283 283 284 284 283 282 281 279 278 278 278 279 280 281 282 284 287 289 291 293 293 292 292 292 293 295 297 299 301 303 305 306 307 307 306 307 309 310 311 312 313 313 312 310 309 310 309 304 299 291 283 282 281 277 275 275 274 272 270 269 268 267 266 265 264 264
278 280 282 283 283 283 282 283 283 283 283 282 281 280 279 278 278 278 278 279 280 282 284 286 288 290 290 290 290 289 290 292 294 296 299 302 305 307 308 309 310 310 311 311 312 313 314 315 315 315 315 314 314 314 315 314 311 304 298 293 288 283 279 277 276 275 274 273 272 270 268 266 264 263
280 281 282 283 283 282 282 283 282 282 281 280 279 278 277 277 278 278 279 280 282 284 285 287 287 287 286 286 286 287 289 292 295 298 301 304 307 309 310 311 313 315 316 316 316 316 317 318 318 318 318 318 318 318 318 319 317 314 311 306 300 295 291 286 283 281 279 277 275 273 271 269 266 265
281 282 281 281 281 281 281 281 280 279 279 278 277 277 277 277 278 278 279 281 282 283 284 284 283 283 282 283 284 286 290 294 297 299 301 305 310 312 312 313 316 319 320 320 320 320 320 320 319 319 319 319 319 320 320 321 321 320 317 314 309 305 300 297 294 290 287 285 282 279 277 273 270 268
280 280 279 278 278 278 278 278 278 277 277 277 277 277 277 277 278 278 279 280 280 280 280 279 279 279 280 281 284 287 292 296 299 298 300 306 311 314 314 315 318 320 322 322 322 322 321 321 320 320 320 320 320 321 322 323 323 322 321 319 316 313 310 306 302 299 296 294 290 288 284 280 276 273
278 278 277 277 277 277 277 277 278 278 279 279 279 278 278 277 277 277 277 277 277 277 276 275 275 277 278 281 284 288 293 298 298 297 299 305 310 313 314 315 317 319 321 322 322 322 321 321 321 321 320 320 321 322 322 323 324 323 323 322 320 319 317 315 311 308 305 301 298 295 291 288 284 281
277 276 276 276 277 277 277 278 278 279 279 279 279 278 278 277 276 275 274 274 274 274 273 272 273 275 279 282 285 289 295 298 297 295 297 302 308 312 314 314 316 317 319 321 321 321 320 320 320 321 321 321 321 322 322 323 323 324 324 323 322 321 320 319 318 315 312 308 305 301 297 295 295 294
275 275 275 275 275 275 275 275 276 277 277 278 278 278 277 276 275 274 273 272 272 271 270 270 271 274 278 282 285 289 295 297 295 293 295 299 305 311 313 313 314 315 317 318 320 320 319 318 319 321 321 321 321 322 322 322 322 323 324 323 323 322 321 321 320 319 317 314 311 307 303 301 300 300
273 273 273 273 273 272 272 273 275 276 277 277 277 276 276 275 274 274 273 272 271 269 269 269 271 275 279 283 286 291 295 295 292 291 293 297 304 310 312 312 313 313 314 316 317 318 318 317 317 318 321 322 322 322 322 322 322 322 323 323 322 322 322 322 321 320 320 318 315 312 309 305 302 299
271 271 271 271 272 272 274 275 277 277 277 276 275 275 275 274 274 273 272 270 269 268 268 269 272 277 281 284 288 292 294 292 289 289 292 296 303 308 311 311 311 311 312 313 315 316 316 316 315 316 318 320 322 322 322 322 322 322 322 322 322 322 322 323 323 322 321 321 319 317 315 311 307 302
270 270 271 271 273 274 276 277 277 277 276 275 275 275 274 274 273 272 271 270 269 268 268 271 274 278 282 285 289 292 291 289 288 289 291 296 302 307 310 310 309 309 309 310 312 313 314 314 314 314 315 317 319 321 322 321 321 322 323 323 322 322 322 323 323 323 322 322 321 320 319 317 314 310
269 270 271 272 273 274 275 276 276 276 276 276 275 275 274 273 273 272 272 271 271 271 272 274 276 280 283 287 289 290 289 287 287 288 291 295 300 306 309 308 307 307 307 307 309 310 311 312 312 313 313 314 316 318 320 321 321 322 323 324 324 323 322 322 323 324 324 324 323 323 322 322 321 318
266 268 269 270 271 272 274 275 276 276 276 276 276 275 274 274 273 273 273 273 274 274 275 277 279 282 285 287 288 288 287 286 286 288 291 294 299 304 307 307 306 305 305 305 306 307 309 310 311 311 312 313 314 315 318 320 321 322 323 325 326 326 325 324 324 324 325 325 325 325 325 325 325 324
264 265 266 267 268 270 272 275 276 277 277 277 277 278 278 277 277 276 276 276 276 277 278 280 282 284 285 286 287 287 287 286 287 289 291 294 297 302 305 305 304 303 304 304 303 304 306 309 309 309 310 312 313 314 315 318 321 323 323 325 327 328 327 326 325 324 325 325 326 326 327 327 327 326
262 264 265 267 268 270 272 275 276 277 277 277 277 277 278 278 278 277 278 278 278 279 281 282 283 284 285 286 287 287 286 286 288 290 292 293 296 300 302 302 302 302 302 302 301 302 304 307 308 308 309 310 312 313 314 315 319 323 325 326 327 329 329 328 326 325 324 325 326 326 327 328 328 327
262 264 267 269 271 272 274 276 277 278 278 277 277 276 276 276 277 278 279 280 281 281 282 282 283 285 286 288 288 288 286 286 288 290 292 293 295 298 300 300 299 299 300 299 299 300 303 306 307 307 308 309 310 312 313 313 315 319 324 326 328 330 330 329 327 326 325 325 326 327 327 328 328 328
265 266 269 272 274 276 276 276 276 276 276 276 277 276 276 277 278 279 280 281 282 282 283 284 285 287 288 289 290 289 288 288 288 290 291 292 294 297 298 298 297 298 297 296 296 298 302 304 305 306 307 308 308 310 311 311 312 315 319 323 326 329 330 329 327 327 327 327 327 328 329 330 331 331
269 271 273 275 277 277 276 275 274 274 274 275 277 277 278 278 279 280 281 282 283 283 284 285 287 288 289 290 290 290 289 289 289 289 290 292 294 295 296 296 296 296 295 294 295 297 300 302 303 305 306 307 307 308 310 310 310 312 315 319 322 326 329 329 327 326 328 330 332 334 336 337 338 339
271 274 276 277 276 275 273 272 272 273 274 275 277 278 279 280 280 282 283 284 284 284 285 286 287 288 289 289 289 289 289 289 289 289 290 291 293 294 294 294 294 293 292 292 293 296 299 301 302 303 304 305 306 307 308 308 309 310 313 317 319 321 324 326 326 324 326 330 334 336 339 341 343 343
272 273 275 276 275 272 270 270 271 272 273 275 276 278 280 280 281 282 283 284 284 285 285 286 287 288 289 290 290 289 289 289 289 290 291 292 292 293 292 292 292 291 291 291 293 295 298 300 301 302 303 303 304 306 307 307 309 311 313 316 319 320 321 322 323 322 321 323 328 332 336 339 342 343
272 273 273 273 272 271 270 269 270 273 275 276 278 279 281 281 282 283 284 285 285 286 287 287 288 289 290 290 290 290 290 290 290 291 291 291 291 291 291 291 290 290 290 291 293 295 297 299 300 301 302 302 303 304 305 306 308 311 314 317 320 321 321 320 320 319 318 318 323 327 331 334 338 340
Height
10995 10996 10996 10997 10997 10997 10998 10998 10998 10999 10999 10999 10999 10999 10999 10998 10998 10998 10998 10998 10998 10998 10998 10998 10999 10999 10999 10999 10999 10999 10999 10998 10998 10998 10998 10997 10997 10996 10996 10995 10995 10994 10994 10993 10993 10992 10992 10991 10990 10989 10988 10987 10987 10986 10985 10984 10983 10982 10980 10979 10978 10977 10975 10974 10973 10972 10971 10969 10968 10967 10966 10964 10963 10962
10996 10996 10996 10997 10997 10997 10997 10998 10998 10998 10998 10998 10998 10998 10998 10998 10998 10998 10999 10998 10998 10998 10998 10998 10998 10999 10999 10999 10998 10998 10998 10998 10998 10997 10997 10997 10996 10995 10995 10994 10994 10993 10993 10992 10991 10991 10990 10989 10988 10988 10987 10986 10985 10984 10983 10982 10980 10979 10978 10977 10976 10974 10973 10972 10971 10969 10968 10967 10965 10964 10963 10961 10960 10959
10996 10996 10996 10996 10997 10997 10997 10998 10998 10998 10998 10998 10998 10998 10998 10998 10998 10998 10998 10998 10998 10998 10998 10998 10998 10998 10998 10998 10998 10997 10997 10997 10997 10997 10996 10996 10995 10995 10994 10993 10992 10992 10991 10990 10990 10989 10988 10987 10987 10986 10985 10984 10982 10981 10980 10979 10978 10977 10975 10974 10973 10971 10970 10969 10967 10966 10965 10963 10962 10961 10959 10958 10956 10955
10995 10995 10995 10995 10996 10996 10997 10997 10997 10998 10998 10997 10997 10997 10997 10997 10997 10997 10998 10998 10998 10998 10998 10998 10997 10997 10997 10997 10997 10996 10996 10996 10996 10995 10995 10994 10994 10993 10993 10992 10991 10990 10989 10989 10988 10987 10987 10986 10985 10984 10983 10981 10980 10979 10977 10976 10975 10973 10972 10970 10969 10968 10966 10965 10964 10962 10961 10959 10958 10957 10955 10954 10952 10951
10993 10994 10994 10994 10995 10995 10996 10997 10997 10997 10997 10997 10997 10997 10997 10997 10996 10996 10996 10996 10996 10997 10997 10997 10996 10996 10996 10996 10995 10995 10994 10994 10994 10993 10993 10992 10992 10992 10991 10990 10989 10988 10987 10987 10986 10985 10984 10983 10982 10981 10980 10979 10977 10976 10974 10973 10971 10970 10968 10967 10965 10964 10962 10961 10960 10958 10957 10955 10954 10952 10951 10949 10948 10946
10992 10992 10992 10993 10993 10994 10994 10995 10996 10996 10996 10996 10996 10996 10996 10996 10996 10996 10995 10995 10995 10995 10995 10995 10995 10995 10994 10994 10993 10993 10992 10991 10991 10990 10990 10989 10989 10989 10988 10988 10987 10986 10985 10984 10984 10983 10981 10980 10979 10978 10976 10975 10973 10972 10970 10969 10967 10966 10964 10963 10961 10960 10958 10957 10955 10954 10952 10951 10949 10948 10947 10945 10943 10941
10990 10991 10991 10991 10992 10992 10992 10993 10994 10994 10994 10995 10995 10994 10994 10994 10994 10994 10994 10995 10994 10994 10994 10994 10993 10993 10992 10992 10991 10990 10989 10989 10988 10987 10986 10986 10986 10986 10986 10985 10984 10983 10982 10981 10980 10979 10978 10977 10975 10974 10972 10970 10969 10967 10966 10964 10963 10961 10960 10958 10957 10955 10954 10952 10951 10949 10948 10946 10945 10944 10942 10940 10939 10937
10988 10989 10990 10990 10990 10990 10991 10991 10991 10992 10992 10993 10993 10993 10993 10993 10993 10993 10993 10993 10993 10993 10993 10992 10992 10991 10990 10989 10988 10987 10986 10985 10984 10983 10983 10983 10984 10984 10984 10983 10981 10979 10978 10977 10976 10975 10973 10972 10971 10969 10968 10966 10964 10963 10961 10959 10958 10956 10955 10953 10952 10950 10949 10947 10946 10944 10943 10941 10940 10939 10937 10935 10933 10932
10986 10987 10988 10988 10988 10989 10989 10989 10989 10990 10990 10990 10991 10991 10991 10991 10992 10992 10992 10992 10992 10992 10991 10991 10990 10989 10988 10986 10985 10983 10982 10981 10980 10980 10981 10981 10981 10980 10979 10978 10977 10976 10974 10973 10972 10970 10969 10968 10966 10964 10963 10961 10959 10957 10955 10954 10952 10951 10949 10948 10946 10944 10943 10941 10940 10938 10937 10936 10934 10933 10931 10930 10928 10926
10984 10985 10986 10986 10987 10987 10987 10987 10988 10988 10988 10988 10988 10989 10989 10989 10990 10990 10990 10990 10990 10989 10989 10989 10988 10987 10985 10983 10981 10980 10978 10977 10976 10977 10978 10979 10978 10975 10974 10973 10972 10972 10970 10969 10967 10966 10964 10963 10961 10960 10958 10956 10954 10952 10950 10948 10946 10945 10943 10941 10940 10938 10936 10935 10933 10932 10931 10929 10928 10926 10925 10923 10921 10919
10982 10982 10983 10984 10984 10984 10985 10985 10985 10986 10986 10986 10986 10986 10986 10987 10987 10987 10987 10987 10986 10986 10986 10985 10985 10984 10983 10981 10978 10974 10971 10971 10972 10974 10975 10975 10973 10971 10969 10968 10967 10967 10965 10964 10962 10960 10959 10958 10956 10955 10953 10951 10949 10947 10944 10942 10941 10939 10937 10935 10933 10932 10930 10929 10927 10926 10924 10923 10921 10920 10918 10916 10914 10912
10979 10980 10980 10981 10981 10982 10982 10983 10983 10983 10983 10983 10983 10983 10983 10983 10983 10983 10983 10983 10983 10983 10982 10982 10982 10981 10981 10980 10974 10967 10965 10966 10969 10971 10970 10969 10968 10967 10965 10964 10962 10961 10960 10958 10956 10954 10953 10951 10950 10949 10947 10945 10943 10941 10938 10936 10934 10933 10931 10929 10927 10925 10923 10922 10920 10919 10917 10916 10914 10913 10911 10910 10908 10905
10977 10977 10978 10978 10979 10979 10979 10979 10980 10980 10980 10980 10980 10981 10981 10981 10980 10980 10980 10979 10979 10979 10978 10978 10977 10977 10978 10976 10969 10964 10963 10964 10965 10965 10965 10964 10963 10962 10961 10959 10957 10955 10954 10952 10951 10949 10947 10945 10943 10942 10940 10939 10936 10934 10930 10928 10927 10925 10923 10921 10919 10918 10916 10915 10913 10912 10910 10909 10907 10905 10904 10902 10900 10898
10974 10975 10975 10976 10976 10976 10976 10976 10976 10976 10976 10977 10978 10979 10979 10979 10977 10976 10975 10975 10975 10975 10974 10973 10973 10972 10972 10970 10967 10964 10962 10961 10960 10960 10959 10958 10957 10956 10955 10953 10951 10949 10947 10946 10944 10942 10940 10939 10937 10935 10933 10932 10930 10926 10923 10920 10919 10917 10916 10913 10911 10910 10908 10907 10906 10904 10902 10901 10899 10897 10896 10894 10892 10890
10971 10971 10971 10972 10973 10973 10973 10973 10972 10971 10972 10974 10974 10975 10975 10975 10973 10971 10971 10971 10971 10971 10970 10969 10968 10967 10966 10965 10963 10962 10959 10957 10956 10954 10952 10952 10950 10949 10947 10946 10944 10943 10942 10939 10937 10935 10933 10931 10929 10927 10925 10924 10922 10919 10916 10912 10910 10909 10907 10905 10902 10901 10900 10898 10896 10895 10893 10892 10890 10889 10887 10885 10883 10882
10967 10968 10968 10969 10970 10970 10971 10971 10969 10969 10969 10970 10970 10970 10970 10970 10969 10968 10967 10967 10966 10966 10966 10965 10963 10961 10960 10959 10958 10955 10954 10952 10950 10947 10946 10944 10942 10940 10939 10937 10936 10936 10935 10932 10930 10926 10924 10921 10919 10917 10916 10915 10913 10911 10907 10904 10902 10900 10898 10895 10893 10892 10890 10889 10887 10885 10883 10882 10881 10879 10877 10876 10874 10872
10964 10964 10965 10965 10966 10966 10967 10967 10966 10966 10966 10967 10966 10966 10966 10966 10965 10964 10964 10963 10962 10961 10961 10960 10959 10957 10955 10954 10953 10950 10947 10945 10944 10942 10940 10937 10935 10933 10931 10929 10928 10928 10927 10924 10920 10917 10915 10913 10909 10907 10905 10904 10902 10900 10898 10895 10893 10890 10888 10885 10883 10882 10880 10879 10877 10875 10873 10873 10872 10870 10867 10865 10863 10861
10961 10961 10961 10962 10962 10962 10962 10962 10962 10962 10962 10963 10963 10962 10961 10961 10960 10960 10960 10959 10957 10956 10955 10954 10953 10952 10950 10950 10949 10947 10942 10938 10938 10937 10934 10930 10928 10925 10923 10922 10921 10919 10917 10914 10911 10909 10907 10905 10902 10898 10895 10893 10891 10889 10887 10886 10883 10881 10878 10876 10874 10873 10870 10868 10867 10866 10865 10864 10863 10860 10858 10855 10853 10851
10957 10957 10958 10958 10958 10957 10957 10957 10957 10958 10958 10958 10958 10958 10957 10956 10956 10955 10955 10954 10952 10951 10950 10948 10947 10946 10945 10944 10944 10941 10937 10933 10932 10931 10928 10925 10922 10918 10916 10915 10914 10911 10909 10906 10903 10900 10897 10896 10894 10890 10887 10883 10880 10877 10876 10874 10873 10871 10869 10867 10866 10864 10861 10858 10858 10858 10858 10857 10855 10853 10851 10847 10844 10842
10952 10953 10954 10954 10954 10953 10953 10952 10952 10953 10953 10953 10953 10953 10952 10951 10951 10950 10949 10948 10947 10946 10944 10943 10941 10939 10939 10939 10937 10934 10930 10928 10926 10924 10921 10919 10916 10912 10910 10909 10907 10904 10902 10899 10896 10892 10889 10887 10885 10881 10877 10873 10869 10866 10864 10863 10861 10860 10858 10858 10858 10856 10853 10850 10851 10852 10850 10848 10847 10846 10844 10841 10837 10833
10948 10949 10949 10949 10948 10948 10948 10948 10948 10947 10947 10947 10947 10947 10946 10945 10945 10944 10942 10941 10940 10939 10938 10936 10934 10933 10932 10933 10931 10927 10925 10923 10921 10918 10915 10912 10910 10907 10904 10903 10900 10898 10895 10892 10889 10885 10881 10878 10876 10872 10867 10863 10859 10856 10854 10852 10851 10849 10848 10847 10847 10847 10843 10841 10844 10844 10840 10838 10837 10837 10835 10832 10829 10824
10943 10943 10943 10943 10943 10942 10942 10942 10942 10942 10941 10941 10941 10940 10940 10939 10938 10937 10935 10934 10933 10932 10931 10929 10927 10926 10925 10925 10924 10921 10918 10917 10914 10912 10909 10907 10904 10901 10899 10896 10894 10891 10888 10886 10883 10879 10875 10871 10868 10864 10859 10855 10850 10847 10846 10844 10843 10842 10839 10836 10837 10836 10831 10830 10833 10830 10826 10826 10827 10826 10824 10822 10819 10815
10939 10938 10938 10938 10937 10937 10936 10936 10936 10935 10935 10934 10934 10933 10932 10931 10930 10929 10927 10926 10925 10924 10923 10922 10920 10919 10918 10918 10917 10915 10912 10910 10908 10906 10904 10901 10898 10895 10892 10889 10886 10884 10881 10879 10876 10873 10868 10864 10861 10858 10854 10849 10843 10841 10840 10838 10837 10837 10832 10826 10826 10825 10817 10816 10820 10818 10814 10816 10816 10814 10814 10812 10808 10805
10932 10932 10931 10932 10932 10931 10930 10929 10929 10928 10927 10927 10926 10925 10924 10924 10923 10921 10920 10919 10918 10917 10916 10914 10913 10911 10910 10910 10909 10908 10906 10904 10902 10900 10898 10896 10893 10890 10887 10884 10880 10877 10875 10872 10869 10866 10861 10857 10854 10852 10849 10844 10838 10835 10834 10832 10831 10832 10826 10818 10818 10816 10806 10803 10807 10806 10804 10805 10803 10801 10803 10802 10797 10794
10926 10925 10925 10925 10925 10924 10924 10923 10922 10922 10920 10919 10918 10917 10917 10916 10915 10914 10913 10912 10911 10910 10908 10907 10906 10905 10903 10902 10901 10900 10899 10898 10896 10894 10892 10890 10887 10884 10881 10878 10874 10871 10868 10865 10862 10858 10854 10851 10847 10845 10843 10838 10832 10829 10828 10826 10824 10824 10820 10814 10812 10810 10802 10796 10795 10795 10795 10795 10792 10790 10790 10790 10787 10784
10920 10920 10919 10918 10917 10917 10916 10916 10915 10915 10914 10912 10911 10910 10909 10909 10908 10907 10906 10905 10904 10903 10902 10901 10900 10898 10897 10896 10895 10894 10893 10892 10891 10888 10886 10883 10881 10878 10874 10871 10867 10864 10861 10858 10854 10851 10847 10843 10840 10837 10835 10832 10827 10822 10821 10819 10816 10813 10811 10807 10804 10801 10797 10792 10788 10786 10785 10784 10782 10780 10778 10778 10776 10774
10914 10913 10912 10911 10910 10910 10909 10909 10908 10908 10907 10906 10905 10904 10903 10902 10901 10900 10899 10898 10897 10896 10895 10894 10893 10892 10891 10890 10889 10888 10887 10886 10885 10883 10880 10878 10875 10872 10868 10864 10861 10857 10854 10851 10848 10845 10841 10837 10834 10830 10828 10825 10821 10817 10813 10811 10808 10805 10801 10798 10794 10791 10788 10785 10781 10778 10775 10773 10771 10769 10767 10766 10764 10762
10906 10906 10906 10905 10904 10903 10902 10902 10901 10900 10900 10899 10898 10897 10896 10896 10895 10894 10893 10892 10891 10890 10889 10887 10886 10886 10885 10884 10883 10882 10881 10880 10879 10877 10874 10872 10869 10866 10862 10859 10855 10851 10848 10845 10842 10839 10836 10832 10829 10825 10822 10819 10815 10812 10808 10804 10800 10797 10794 10790 10787 10783 10780 10777 10773 10770 10766 10764 10762 10759 10757 10755 10753 10751
10899 10899 10899 10898 10898 10897 10896 10895 10894 10894 10893 10893 10892 10891 10891 10890 10889 10888 10887 10886 10885 10884 10883 10881 10880 10880 10879 10878 10877 10876 10875 10874 10872 10870 10868 10866 10863 10860 10856 10853 10850 10846 10843 10840 10836 10833 10830 10827 10823 10820 10817 10813 10810 10806 10802 10798 10794 10790 10787 10783 10780 10776 10773 10770 10766 10762 10759 10756 10753 10750 10748 10745 10743 10741
10891 10892 10891 10891 10891 10891 10890 10889 10888 10887 10887 10886 10886 10885 10885 10884 10883 10882 10881 10880 10879 10878 10877 10876 10875 10874 10873 10873 10872 10871 10869 10868 10866 10864 10862 10860 10858 10855 10852 10848 10845 10842 10839 10835 10832 10829 10825 10822 10818 10815 10811 10808 10804 10800 10796 10793 10788 10784 10780 10776 10773 10769 10766 10763 10759 10756 10753 10750 10747 10743 10739 10736 10734 10733
10885 10885 10884 10884 10884 10884 10883 10883 10882 10882 10881 10880 10880 10879 10879 10878 10877 10876 10875 10873 10872 10871 10871 10870 10869 10868 10868 10867 10866 10865 10864 10862 10860 10859 10857 10855 10853 10850 10847 10844 10840 10837 10834 10831 10828 10825 10821 10817 10814 10810 10807 10803 10799 10795 10791 10787 10783 10779 10775 10771 10767 10763 10760 10757 10753 10750 10747 10744 10741 10737 10733 10729 10727 10726
10878 10878 10878 10878 10878 10878 10877 10877 10876 10876 10876 10875 10874 10873 10873 10872 10871 10869 10868 10867 10866 10865 10865 10864 10864 10863 10862 10861 10860 10859 10858 10856 10854 10853 10851 10850 10848 10845 10842 10839 10836 10833 10829 10826 10823 10820 10817 10813 10809 10806 10802 10799 10795 10791 10787 10782 10779 10775 10771 10766 10762 10758 10755 10751 10748 10745 10742 10739 10735 10732 10728 10724 10722 10719
10872 10872 10872 10871 10871 10871 10871 10871 10870 10870 10869 10868 10867 10866 10866 10865 10864 10863 10862 10861 10861 10860 10860 10859 10858 10858 10857 10856 10855 10853 10852 10850 10848 10847 10845 10844 10842 10840 10837 10834 10831 10828 10825 10822 10819 10816 10812 10809 10805 10801 10798 10794 10790 10787 10783 10778 10774 10771 10767 10762 10758 10754 10751 10747 10744 10740 10737 10734 10730 10727 10724 10721 10718 10715
10865 10865 10865 10865 10865 10865 10864 10864 10864 10863 10862 10861 10861 10860 10859 10859 10858 10858 10857 10857 10856 10855 10855 10854 10853 10852 10852 10850 10849 10847 10846 10844 10842 10840 10839 10837 10835 10833 10831 10829 10826 10823 10820 10817 10814 10811 10808 10804 10801 10797 10793 10790 10786 10783 10779 10775 10771 10767 10762 10758 10754 10750 10747 10743 10740 10736 10733 10729 10726 10723 10720 10717 10714 10711
10859 10859 10859 10859 10859 10858 10857 10857 10857 10857 10856 10855 10855 10855 10854 10853 10853 10853 10852 10852 10852 10851 10850 10849 10849 10848 10846 10845 10843 10841 10840 10838 10836 10834 10832 10830 10829 10827 10825 10823 10820 10818 10815 10812 10810 10807 10804 10800 10797 10793 10789 10786 10783 10779 10775 10771 10767 10763 10759 10754 10750 10747 10743 10739 10736 10732 10729 10726 10722 10719 10716 10713 10710 10707
10853 10853 10853 10853 10853 10852 10851 10851 10851 10851 10851 10850 10850 10850 10850 10849 10849 10848 10848 10848 10847 10846 10846 10845 10844 10843 10841 10840 10838 10836 10834 10832 10830 10828 10826 10824 10822 10821 10819 10817 10814 10812 10809 10807 10804 10802 10799 10795 10792 10788 10785 10781 10778 10775 10771 10767 10763 10759 10755 10750 10746 10742 10739 10735 10732 10728 10725 10722 10719 10716 10713 10709 10706 10703
10848 10848 10848 10848 10847 10846 10846 10845 10845 10846 10846 10846 10845 10845 10845 10845 10844 10844 10843 10843 10842 10841 10841 10840 10838 10837 10836 10834 10832 10830 10828 10826 10824 10822 10820 10818 10816 10814 10813 10810 10808 10805 10803 10800 10798 10795 10793 10790 10786 10783 10779 10776 10773 10770 10766 10762 10758 10754 10750 10746 10742 10738 10734 10731 10727 10724 10721 10718 10715 10712 10709 10706 10703 10700
10843 10843 10843 10843 10842 10842 10841 10840 10840 10840 10841 10841 10841 10840 10839 10839 10839 10839 10838 10838 10837 10836 10835 10834 10833 10831 10830 10828 10827 10824 10822 10820 10818 10816 10814 10812 10810 10808 10806 10804 10802 10799 10797 10794 10792 10789 10786 10784 10780 10777 10773 10770 10767 10764 10761 10757 10754 10750 10746 10742 10738 10734 10730 10726 10723 10720 10717 10714 10711 10708 10705 10702 10699 10696
10838 10838 10838 10838 10837 10837 10836 10836 10835 10834 10835 10835 10836 10835 10834 10834 10833 10833 10832 10832 10831 10830 10829 10828 10827 10825 10824 10822 10821 10819 10817 10815 10813 10811 10808 10806 10805 10803 10801 10798 10796 10793 10791 10788 10785 10783 10780 10778 10774 10771 10767 10764 10761 10758 10755 10752 10749 10745 10741 10738 10734 10730 10726 10723 10719 10716 10713 10710 10707 10705 10702 10699 10696 10693
10833 10833 10833 10832 10832 10832 10832 10831 10830 10829 10829 10829 10829 10830 10829 10828 10828 10827 10826 10826 10825 10824 10823 10822 10820 10819 10818 10816 10814 10813 10811 10809 10807 10805 10802 10800 10799 10797 10795 10792 10790 10787 10785 10782 10779 10777 10774 10771 10768 10765 10762 10759 10756 10752 10749 10746 10744 10741 10737 10733 10730 10726 10723 10719 10716 10712 10709 10706 10703 10701 10698 10696 10693 10690
10828 10829 10828 10828 10827 10827 10826 10826 10825 10825 10823 10822 10822 10822 10823 10823 10822 10821 10821 10820 10819 10817 10816 10815 10814 10812 10811 10809 10808 10807 10805 10803 10801 10799 10796 10794 10792 10791 10789 10786 10784 10781 10778 10775 10773 10770 10768 10765 10762 10759 10756 10753 10750 10747 10744 10742 10739 10736 10733 10730 10726 10722 10719 10715 10712 10709 10706 10702 10700 10697 10695 10692 10690 10687
10823 10823 10823 10823 10822 10821 10820 10820 10820 10819 10819 10818 10816 10816 10816 10816 10816 10815 10815 10814 10813 10811 10810 10809 10807 10805 10804 10802 10801 10800 10798 10797 10795 10792 10790 10787 10785 10784 10782 10779 10777 10774 10772 10769 10766 10764 10762 10759 10756 10753 10750 10747 10745 10742 10739 10736 10734 10731 10728 10725 10722 10718 10715 10712 10709 10706 10702 10699 10697 10694 10691 10689 10687 10684
10817 10817 10817 10817 10816 10816 10815 10814 10814 10813 10813 10813 10812 10811 10810 10810 10810 10809 10808 10807 10806 10805 10803 10802 10801 10799 10797 10796 10794 10793 10791 10790 10788 10786 10784 10781 10778 10776 10775 10773 10770 10768 10765 10762 10760 10758 10755 10752 10749 10747 10744 10742 10739 10736 10733 10730 10728 10726 10723 10720 10717 10714 10711 10708 10705 10702 10699 10696 10693 10690 10688 10685 10683 10680
10810 10810 10810 10810 10810 10810 10809 10809 10808 10808 10807 10807 10807 10806 10805 10804 10803 10803 10802 10800 10799 10798 10797 10795 10794 10792 10791 10789 10787 10785 10784 10782 10780 10778 10777 10775 10772 10769 10767 10765 10763 10761 10759 10756 10754 10751 10748 10745 10742 10740 10738 10735 10733 10730 10727 10724 10722 10720 10717 10715 10712 10709 10706 10703 10700 10697 10694 10691 10688 10685 10683 10680 10678 10675
10804 10804 10804 10804 10804 10804 10803 10803 10803 10802 10801 10801 10800 10800 10799 10797 10797 10796 10795 10793 10792 10791 10789 10788 10786 10785 10783 10781 10779 10777 10775 10774 10772 10771 10769 10767 10765 10763 10760 10758 10756 10754 10752 10750 10747 10745 10741 10738 10735 10732 10730 10728 10725 10723 10721 10718 10716 10713 10711 10709 10706 10703 10700 10698 10695 10692 10689 10686 10682 10679 10676 10673 10671 10668